Danbury, CT

2:00 PM EDT on July 26, 2017 (GMT -0400)
Danbury Municipal

Weather History for KDXR - December, 2001

Change the Weather History Date:

Wednesday, December 5, 2001

  Actual Average Record
Temperature  
Mean Temperature 52 °F -  
Max Temperature 64 °F 41 °F 64 °F (2001)
Min Temperature 39 °F 24 °F 9 °F (1976)
Degree Days  
Heating Degree Days 14    
Growing Degree Days 2 (Base 50)    
Moisture  
Dew Point 43 °F    
Average Humidity 74    
Maximum Humidity 97    
Minimum Humidity 51    
Precipitation  
Precipitation 0.01 in - - ()
Sea Level Pressure  
Sea Level Pressure 30.27 in    
Wind  
Wind Speed 4 mph (WSW)    
Max Wind Speed 12 mph    
Max Gust Speed -    
Visibility 10 miles    
Events Rain    
Averages and records for this station are not official NWS values.
T = Trace of Precipitation, MM = Missing Value Source: NWS Daily Summary

Daily Weather History Graph

Daily Weather History Graph

Search for Another Location

Airport or City:

Trip Planner

Search our weather history database for the weather conditions in past years. The results will help you decide how hot, cold, wet, or windy it might be!

Date:

Astronomy

Dec. 05, 2001 Rise Set
Actual Time 7:04 AM EST 4:24 PM EST
Civil Twilight 6:33 AM EST 4:55 PM EST
Nautical Twilight 5:59 AM EST 5:30 PM EST
Astronomical Twilight 5:25 AM EST 6:03 PM EST
Moon 9:26 PM EST (12/5) 11:25 AM EST (12/5)
Length of Visible Light 10h 21m
Length of Day
9h 19m
Waning Gibbous, 73% of the Moon is Illuminated
Dec 5
Waning Gibbous
Dec 7
Last Quarter
Dec 14
New
Dec 22
First Quarter
Dec 30
Full

Hourly Weather History & Observations

Time (EST) Temp. Windchill Dew Point Humidity Pressure Visibility Wind Dir Wind Speed Gust Speed Precip Events Conditions
12:53 AM 52.0 °F - 39.0 °F 61% 30.29 in 8.0 mi WSW 4.6 mph - 0.01 in Rain Light Rain
3:53 AM 46.0 °F 44.8 °F 42.1 °F 86% 30.28 in 10.0 mi North 3.5 mph - N/A   Mostly Cloudy
4:53 AM 42.1 °F - 39.9 °F 92% 30.29 in 10.0 mi Calm Calm - N/A   Clear
5:53 AM 39.0 °F - 37.9 °F 96% 30.31 in 8.0 mi Calm Calm - N/A   Clear
6:53 AM 39.9 °F 37.8 °F 39.0 °F 97% 30.32 in 9.0 mi SW 3.5 mph - N/A   Clear
7:53 AM 43.0 °F - 39.0 °F 86% 30.32 in 10.0 mi Calm Calm - N/A   Clear
8:53 AM 55.0 °F - 39.0 °F 55% 30.33 in 10.0 mi WSW 5.8 mph - N/A   Clear
9:53 AM 57.9 °F - 39.9 °F 51% 30.35 in 10.0 mi West 8.1 mph - N/A   Clear
10:53 AM 61.0 °F - 43.0 °F 52% 30.32 in 10.0 mi WSW 8.1 mph - N/A   Mostly Cloudy
11:53 AM 62.1 °F - 44.1 °F 52% 30.30 in 10.0 mi West 11.5 mph - N/A   Scattered Clouds
12:53 PM 62.1 °F - 45.0 °F 53% 30.28 in 10.0 mi WSW 8.1 mph - N/A   Overcast
1:53 PM 64.0 °F - 46.0 °F 52% 30.26 in 10.0 mi WSW 8.1 mph - N/A   Scattered Clouds
2:53 PM 64.0 °F - 46.9 °F 54% 30.25 in 10.0 mi WSW 8.1 mph - N/A   Clear
3:53 PM 60.1 °F - 46.9 °F 62% 30.25 in 10.0 mi South 3.5 mph - N/A   Clear
4:53 PM 54.0 °F - 46.0 °F 75% 30.25 in 10.0 mi Calm Calm - N/A   Clear
5:53 PM 50.0 °F - 45.0 °F 83% 30.25 in 10.0 mi WNW 3.5 mph - N/A   Clear
6:53 PM 48.0 °F - 44.1 °F 86% 30.25 in 10.0 mi Calm Calm - N/A   Clear
7:53 PM 46.0 °F 44.8 °F 43.0 °F 89% 30.25 in 10.0 mi WSW 3.5 mph - N/A   Clear
8:53 PM 46.9 °F - 44.1 °F 90% 30.25 in 10.0 mi Calm Calm - N/A   Clear
9:53 PM 48.9 °F - 44.1 °F 83% 30.21 in 10.0 mi Calm Calm - N/A   Clear
10:53 PM 46.0 °F - 42.1 °F 86% 30.20 in 10.0 mi Calm Calm - N/A   Clear
11:53 PM 44.1 °F - 41.0 °F 89% 30.18 in 10.0 mi Calm Calm - N/A   Clear